[[{"header":{"parameterUnit":"m.s-1","parameterCategory":1,"la1":30.2991,"la2":30.254,"lo1":-89.0895,"lo2":-89.0444,"dy":0.0017,"dx":0.0017,"nx":28,"ny":28,"refTime":"2023-09-19T09:00:00:Z","depth":0,"parameterNumber":2,"parameterNumberName":"U-component_of_WINDS"},"data":[0,0,0,0,0,0,0,0,0,0,0,0,0,0,0,0,0,0,0,0,0,0,0,0,0,0,0,0,0,0,0,0,0,0,0,0,0,0,0,0,0,0,0,0,0,0,0,0,0,0,0,0,0,0,0,0,0,0,-4.1787,-4.1788,0,-4.1872,-4.1873,-4.1874,-4.1833,-4.1831,-4.1829,-4.1827,-4.1909,-4.1914,-4.1918,0,0,0,0,0,0,0,0,0,0,0,0,0,-4.1584,-4.1588,-4.1787,-4.1788,-4.1789,-4.1872,-4.1873,-4.1874,-4.1834,-4.1831,-4.1828,-4.1826,-4.1908,-4.1913,-4.1918,0,0,0,0,0,0,0,0,0,0,0,0,0,-4.1671,-4.1589,-4.1787,-4.1779,-4.1779,-4.1872,-4.1873,-4.1875,-4.1834,-4.1831,-4.1828,-4.1825,-4.1906,-4.1913,-4.1919,-4.2023,0,0,-4.1938,-4.1941,0,0,0,0,0,0,0,0,-4.1666,-4.1678,-4.1779,-4.178,-4.178,-4.1839,-4.1832,-4.1924,-4.1835,-4.1813,-4.1827,-4.1823,-4.1888,-4.1896,-4.1919,-4.2027,-4.203,-4.1939,-4.1943,-4.1945,-4.1947,0,0,0,0,0,0,0,-4.166,-4.1674,-4.1821,-4.1781,-4.1781,-4.1769,-4.1778,-4.1849,-4.1868,-4.1815,-4.1812,-4.1823,-4.1888,-4.1913,-4.1921,-4.2032,-4.1939,-4.1944,-4.1948,-4.1951,-4.2226,-4.2229,0,0,0,0,0,0,-4.1655,-4.167,-4.1818,-4.1823,-4.1714,-4.1776,-4.1786,-4.1823,-4.1867,-4.1871,-4.1826,-4.1821,-4.1904,-4.1913,-4.1923,-4.2045,-4.1945,-4.1951,-4.1955,-4.2222,-4.2226,-4.223,0,0,0,0,0,0,-4.1651,-4.1669,-4.1815,-4.1746,-4.1763,-4.1783,-4.1825,-4.1827,-4.1852,-4.1875,-4.1878,-4.1848,-4.1902,-4.1914,-4.1998,-4.2047,-4.1954,-4.196,-4.2218,-4.2223,-4.2228,-4.2291,0,0,0,0,0,0,-4.1645,-4.1667,-4.1708,-4.1747,-4.1767,-4.189,-4.1829,-4.1831,-4.1863,-4.1858,-4.1897,-4.19,-4.19,-4.1989,-4.2004,-4.2054,-4.1965,-4.2213,-4.222,-4.2227,-4.2285,-4.2298,-4.2309,0,0,0,0,0,-4.1638,-4.1722,-4.1711,-4.1729,-4.1819,-4.1893,-4.1904,-4.1903,-4.1867,-4.1907,-4.1922,-4.1899,-4.204,-4.1998,-4.2015,-4.2068,-4.221,-4.2218,-4.2226,-4.2279,-4.2295,-4.2309,0,0,0,0,0,0,-4.1688,-4.1727,-4.1715,-4.1815,-4.1851,-4.1886,-4.1936,-4.1921,-4.1967,-4.1959,-4.1955,-4.1964,-4.205,-4.2068,-4.202,-4.2169,-4.2119,-4.2131,-4.2154,-4.217,-4.2182,-4.2174,-4.197,0,0,0,0,0,-4.1711,-4.1769,-4.18,-4.1885,-4.1904,-4.1917,-4.1949,-4.1945,-4.1982,-4.1996,-4.2017,-4.2052,-4.2104,-4.2138,-4.2188,-4.2288,-4.2294,-4.2333,-4.2345,-4.2355,-4.2364,-4.2415,-4.2432,-4.2256,-4.2256,-4.2256,0,0,-4.1758,-4.1787,-4.1823,-4.1895,-4.1923,-4.198,-4.193,-4.1994,-4.2036,-4.2006,-4.2085,-4.2102,-4.2141,-4.2232,-4.2274,-4.2249,-4.2414,-4.2365,-4.2373,-4.2377,-4.2425,-4.2441,-4.2456,-4.2261,-4.226,-4.226,0,0,-4.1873,-4.1902,-4.1975,-4.2003,-4.2046,-4.2054,-4.2072,-4.2109,-4.2119,-4.22,-4.2177,-4.2227,-4.2317,-4.2345,-4.2371,-4.2495,-4.2474,-4.2512,-4.2574,-4.2624,-4.2638,-4.265,-4.2691,-4.2706,-4.2521,-4.2521,-4.2522,0,-4.1925,-4.2013,-4.2014,-4.2079,-4.2109,-4.2087,-4.2158,-4.2186,-4.2242,-4.2263,-4.2235,-4.2347,-4.2372,-4.2468,-4.2498,-4.2521,-4.2538,-4.2505,-4.2636,-4.2649,-4.266,-4.2699,-4.2714,-4.2525,-4.2525,-4.2525,-4.2524,0,-4.2074,-4.2135,-4.2188,-4.2244,-4.2281,-4.2349,-4.2358,-4.2395,-4.2389,-4.2399,-4.248,-4.2509,-4.2562,-4.2585,-4.2579,-4.268,-4.2663,-4.2637,-4.2586,-4.268,-4.2717,-4.2732,-4.2531,-4.253,-4.2529,-4.2528,0,0,-4.2221,-4.2276,-4.2295,-4.2318,-4.2364,-4.241,-4.2476,-4.2529,-4.256,-4.26,-4.2653,-4.273,-4.2705,-4.2734,-4.2731,-4.2776,-4.2868,-4.2743,-4.2743,-4.2762,-4.2976,-4.2994,-4.3011,-4.2856,-4.2859,-4.2861,-4.2972,0,-4.2336,-4.2453,-4.2455,-4.2562,-4.2616,-4.2595,-4.2652,-4.2685,-4.2697,-4.2743,-4.2755,-4.2809,-4.2774,-4.2791,-4.2834,-4.2848,-4.291,-4.284,-4.2902,-4.2904,-4.2889,-4.3031,-4.305,-4.3153,-4.2987,-4.2989,-4.2991,0,-4.2486,-4.2531,-4.2643,-4.2678,-4.2701,-4.2753,-4.28,-4.2846,-4.2882,-4.2887,-4.292,-4.291,-4.2975,-4.2925,-4.3012,-4.2964,-4.299,-4.3001,-4.3005,-4.3007,-4.2951,-4.3034,-4.3186,-4.32,-4.3014,-4.3012,-4.301,0,-4.2578,-4.2666,-4.2744,-4.2765,-4.2809,-4.2845,-4.2865,-4.2898,-4.2929,-4.2971,-4.299,-4.3039,-4.3065,-4.3101,-4.3104,-4.3068,-4.3191,-4.3142,-4.3194,-4.3194,-4.3218,-4.3216,-4.3373,-4.3241,-4.3241,-4.3241,-4.324,0,-4.2704,-4.2773,-4.2785,-4.2832,-4.2908,-4.2909,-4.2982,-4.2999,-4.3028,-4.3076,-4.3062,-4.3107,-4.311,-4.3156,-4.3158,-4.3228,-4.3241,-4.3245,-4.3244,-4.3244,-4.3243,-4.3258,-4.3249,-4.3245,-4.3244,-4.3243,-4.3242,0,-4.2818,-4.283,-4.2912,-4.2947,-4.2957,-4.3011,-4.3039,-4.3083,-4.3094,-4.3155,-4.317,-4.3186,-4.3239,-4.3246,-4.3308,-4.331,-4.3393,-4.3386,-4.3381,-4.3378,-4.3429,-4.3423,-4.3599,-4.362,-4.3477,-4.3479,-4.348,0,-4.2896,-4.2948,-4.2989,-4.3021,-4.3042,-4.3094,-4.3126,-4.3129,-4.3162,-4.3206,-4.3244,-4.3296,-4.3337,-4.3423,-4.3439,-4.3486,-4.3478,-4.3536,-4.3484,-4.3482,-4.3474,-4.3469,-4.3473,-4.3545,-4.3546,-4.3548,-4.3549,0,-4.3033,-4.3036,-4.3083,-4.3132,-4.317,-4.3208,-4.3244,-4.3271,-4.3278,-4.3316,-4.337,-4.3403,-4.3466,-4.3516,-4.3563,-4.3581,-4.3565,-4.3566,-4.3579,-4.3578,-4.3571,-4.3572,-4.3404,-4.3561,-4.3559,-4.3559,-4.3558,-4.3557,-4.3129,-4.3173,-4.3208,-4.326,-4.3287,-4.3321,-4.3363,-4.3379,-4.3425,-4.3477,-4.3476,-4.3535,-4.3568,-4.3628,-4.3649,-4.3694,-4.3675,-4.3696,-4.37,-4.3705,-4.3708,-4.3567,-4.3703,-4.3703,-4.3703,-4.3702,-4.3702,0,-4.3261,-4.3283,-4.3331,-4.3381,-4.3422,-4.3406,-4.3445,-4.3479,-4.3531,-4.3564,-4.3605,-4.3666,-4.3715,-4.3735,-4.3782,-4.3814,-4.3807,-4.3826,-4.3821,-4.3825,-4.3725,-4.3706,-4.383,-4.383,-4.383,-4.383,-4.383,-4.383,-4.3335,-4.3408,-4.3414,-4.35,-4.352,-4.3579,-4.3602,-4.3632,-4.3657,-4.3726,-4.3767,-4.378,-4.3807,-4.3856,-4.3899,-4.3903,-4.3919,-4.394,-4.3941,-4.3846,-4.3833,-4.382,-4.3803,-4.3945,-4.3945,-4.4037,-4.4038,-4.4039]},{"header":{"parameterUnit":"m.s-1","parameterCategory":1,"la1":30.2991,"la2":30.254,"lo1":-89.0895,"lo2":-89.0444,"dy":0.0017,"dx":0.0017,"nx":28,"ny":28,"refTime":"2023-09-19T09:00:00:Z","depth":0,"parameterNumber":3,"parameterNumberName":"V-component_of_WINDS"},"data":[0,0,0,0,0,0,0,0,0,0,0,0,0,0,0,0,0,0,0,0,0,0,0,0,0,0,0,0,0,0,0,0,0,0,0,0,0,0,0,0,0,0,0,0,0,0,0,0,0,0,0,0,0,0,0,0,0,0,1.8755,1.8755,0,1.8726,1.8726,1.8726,1.8677,1.8676,1.8675,1.8674,1.8645,1.8645,1.8645,0,0,0,0,0,0,0,0,0,0,0,0,0,1.8768,1.8768,1.8755,1.8755,1.8754,1.8726,1.8726,1.8725,1.8677,1.8676,1.8675,1.8674,1.8645,1.8645,1.8645,0,0,0,0,0,0,0,0,0,0,0,0,0,1.8753,1.8768,1.8755,1.8727,1.8724,1.8726,1.8726,1.8725,1.8677,1.8676,1.8674,1.8673,1.8645,1.8645,1.8645,1.8673,0,0,1.8645,1.8645,0,0,0,0,0,0,0,0,1.8754,1.8753,1.8731,1.8729,1.8725,1.8704,1.872,1.8708,1.8677,1.8695,1.8674,1.8672,1.8665,1.8664,1.8661,1.8671,1.867,1.8645,1.8645,1.8645,1.8645,0,0,0,0,0,0,0,1.8755,1.8754,1.8744,1.8731,1.8727,1.8716,1.8712,1.8717,1.8688,1.8693,1.869,1.8687,1.8663,1.8661,1.866,1.867,1.8645,1.8645,1.8645,1.8645,1.87,1.8702,0,0,0,0,0,0,1.8761,1.8755,1.8744,1.8743,1.8737,1.8716,1.8712,1.8712,1.8688,1.8683,1.8688,1.8685,1.8662,1.866,1.8659,1.8689,1.8645,1.8645,1.8645,1.8699,1.8701,1.8702,0,0,0,0,0,0,1.8761,1.876,1.8746,1.8748,1.8745,1.8718,1.8718,1.8712,1.871,1.8684,1.8679,1.8691,1.8661,1.8659,1.8669,1.8687,1.8645,1.8645,1.8697,1.87,1.8701,1.8749,0,0,0,0,0,0,1.8762,1.8761,1.8771,1.8749,1.8745,1.8756,1.8719,1.8713,1.871,1.8705,1.8685,1.8681,1.8659,1.867,1.867,1.8686,1.8645,1.8696,1.8698,1.8701,1.8746,1.8753,1.8759,0,0,0,0,0,1.8762,1.8785,1.8771,1.877,1.8757,1.8758,1.8756,1.8731,1.8712,1.8721,1.8705,1.8681,1.8686,1.8671,1.8671,1.8688,1.8694,1.8698,1.8701,1.8743,1.8752,1.8759,0,0,0,0,0,0,1.881,1.8782,1.8766,1.8783,1.8773,1.8749,1.8761,1.8741,1.8736,1.8732,1.8701,1.8697,1.8711,1.8701,1.8685,1.8713,1.8686,1.869,1.8719,1.8727,1.8733,1.8734,1.8646,0,0,0,0,0,1.8823,1.8825,1.8801,1.8818,1.8814,1.8789,1.8788,1.877,1.8758,1.8754,1.8738,1.8728,1.8727,1.8727,1.8724,1.8746,1.874,1.8757,1.8764,1.8769,1.8771,1.8781,1.8788,1.8713,1.8713,1.8713,0,0,1.8848,1.8833,1.8837,1.8827,1.8817,1.882,1.8785,1.879,1.8792,1.8754,1.8762,1.8751,1.8738,1.8754,1.876,1.8746,1.8791,1.8773,1.8777,1.8777,1.8785,1.8792,1.8798,1.8715,1.8714,1.8714,0,0,1.8896,1.8886,1.8898,1.889,1.8875,1.8858,1.8862,1.8842,1.8832,1.8841,1.8812,1.8815,1.8814,1.8805,1.8801,1.8847,1.8824,1.8848,1.8879,1.8889,1.8895,1.89,1.8915,1.8921,1.8851,1.8851,1.8851,0,1.893,1.8933,1.8907,1.8914,1.891,1.8877,1.8889,1.8882,1.8868,1.8866,1.8851,1.8849,1.8838,1.8851,1.8862,1.886,1.8862,1.8848,1.8896,1.8901,1.8905,1.8919,1.8925,1.8853,1.8853,1.8853,1.8852,0,1.8974,1.8977,1.8989,1.8976,1.8974,1.8984,1.896,1.8961,1.8944,1.8929,1.8937,1.8923,1.8917,1.8919,1.8903,1.893,1.8921,1.8902,1.8873,1.8916,1.8928,1.8933,1.8857,1.8856,1.8855,1.8855,0,0,1.9048,1.9022,1.9027,1.902,1.9003,1.9005,1.9014,1.9008,1.9009,1.9001,1.9006,1.9007,1.8989,1.8984,1.8966,1.8975,1.9011,1.8954,1.8953,1.8963,1.9038,1.9051,1.9058,1.8997,1.8998,1.8999,1.9039,0,1.9091,1.9103,1.9081,1.9098,1.91,1.9069,1.9077,1.9067,1.9054,1.9054,1.9039,1.9039,1.9016,1.9013,1.9021,1.9005,1.9025,1.9002,1.9,1.9001,1.9002,1.9064,1.9078,1.9116,1.9043,1.9044,1.9045,0,1.9141,1.9135,1.9153,1.9134,1.9135,1.9141,1.9134,1.9135,1.9124,1.9113,1.9109,1.9088,1.9095,1.907,1.9078,1.9063,1.9062,1.9054,1.9055,1.9052,1.9023,1.9061,1.9128,1.9133,1.9053,1.9052,1.9051,0,1.9191,1.9188,1.9198,1.9194,1.9173,1.9179,1.917,1.9158,1.9156,1.915,1.9148,1.9144,1.9141,1.9137,1.9116,1.91,1.9127,1.91,1.9117,1.9118,1.9122,1.9121,1.9188,1.9125,1.9125,1.9125,1.9125,0,1.9239,1.925,1.922,1.9226,1.9238,1.9213,1.9226,1.9214,1.9204,1.9206,1.9181,1.9184,1.9157,1.9158,1.9141,1.915,1.9149,1.9141,1.9135,1.9141,1.9142,1.9138,1.9134,1.9127,1.9126,1.9126,1.9126,0,1.9295,1.9276,1.9284,1.9265,1.926,1.9269,1.9252,1.9257,1.9243,1.9247,1.9247,1.9224,1.9224,1.9203,1.9198,1.9187,1.9201,1.9193,1.9205,1.9201,1.9219,1.9217,1.9282,1.9289,1.9225,1.9226,1.9226,0,1.9326,1.9334,1.9315,1.9316,1.9308,1.9309,1.9307,1.9284,1.9283,1.9271,1.9277,1.9274,1.927,1.927,1.9254,1.925,1.9239,1.9263,1.9238,1.9244,1.9237,1.9236,1.9236,1.9267,1.9268,1.9268,1.9269,0,1.9382,1.9372,1.937,1.9365,1.9363,1.9358,1.9351,1.9353,1.9327,1.9327,1.9326,1.9323,1.9318,1.9315,1.9309,1.93,1.928,1.9277,1.9281,1.9285,1.9291,1.9286,1.9216,1.9275,1.9275,1.9274,1.9274,1.9274,1.9424,1.943,1.9418,1.9416,1.9409,1.9403,1.9406,1.9393,1.9392,1.9385,1.9372,1.9373,1.9362,1.9351,1.9344,1.9344,1.9332,1.9338,1.9338,1.934,1.9342,1.9294,1.9343,1.9343,1.9343,1.9343,1.9343,0,1.9477,1.9468,1.9467,1.9458,1.9457,1.944,1.9432,1.9432,1.9433,1.9424,1.9422,1.942,1.9418,1.9402,1.9397,1.94,1.9391,1.94,1.9398,1.9396,1.9354,1.9351,1.9407,1.9407,1.9407,1.9407,1.9407,1.9407,1.9504,1.9512,1.9501,1.9505,1.9496,1.9496,1.9493,1.9488,1.9481,1.948,1.9478,1.9468,1.9456,1.9451,1.9448,1.9443,1.9441,1.9453,1.9445,1.9405,1.9399,1.9393,1.9389,1.9453,1.9453,1.9486,1.9487,1.9487]}]]